NRT457 KIAH-KIAH

Flight info

Callsign NRT457
Flight time 0h 6m
Altitude 5000
Route MMUGS GUSTI AWDAD AWDAD1
Aircraft B738/M-SDE2E3FGHIRWXY/LB1

Departure

Time 2026-05-04 19:14
Airport George Bush Intercontinental Airport (KIAH)

Arrival

Time 2026-05-04 19:21
Airport George Bush Intercontinental Airport (KIAH)
Time Latitude Longitude Altitude Speed Heading
2026-05-04 19:09 29.99234 -94.47161 10679 ft 350 kts 267°
2026-05-04 19:10 29.98917 -94.49802 11033 ft 321 kts 262°
2026-05-04 19:10 29.98510 -94.52251 11115 ft 301 kts 261°
2026-05-04 19:10 29.98087 -94.54607 10840 ft 296 kts 261°
2026-05-04 19:10 29.97666 -94.56931 10465 ft 295 kts 261°
2026-05-04 19:11 29.97258 -94.59232 10081 ft 294 kts 261°
2026-05-04 19:11 29.96859 -94.61546 9701 ft 293 kts 261°
2026-05-04 19:11 29.96524 -94.63857 9309 ft 292 kts 264°
2026-05-04 19:11 29.96296 -94.66186 8921 ft 290 kts 265°
2026-05-04 19:12 29.96114 -94.68497 8540 ft 290 kts 266°
2026-05-04 19:12 29.95802 -94.73130 7761 ft 288 kts 266°
2026-05-04 19:12 29.95661 -94.75454 7369 ft 288 kts 266°
2026-05-04 19:13 29.95535 -94.77741 6983 ft 287 kts 266°
2026-05-04 19:13 29.95431 -94.80042 6599 ft 287 kts 267°
2026-05-04 19:13 29.95439 -94.82343 6214 ft 287 kts 270°
2026-05-04 19:13 29.95532 -94.84636 5823 ft 286 kts 271°
2026-05-04 19:14 29.95647 -94.86925 5442 ft 286 kts 271°
2026-05-04 19:14 29.95769 -94.89212 5060 ft 286 kts 271°
2026-05-04 19:14 29.95893 -94.91466 4942 ft 275 kts 271°
2026-05-04 19:14 29.96019 -94.93631 4931 ft 262 kts 272°
2026-05-04 19:15 29.96204 -94.95695 4797 ft 260 kts 279°
2026-05-04 19:15 29.96695 -94.97701 4598 ft 265 kts 282°
2026-05-04 19:15 29.97174 -94.99824 4266 ft 274 kts 282°
2026-05-04 19:15 29.97730 -95.01945 4085 ft 277 kts 286°
2026-05-04 19:16 29.98353 -95.04052 3982 ft 275 kts 283°
2026-05-04 19:16 29.98704 -95.06165 3943 ft 256 kts 274°
2026-05-04 19:16 29.98885 -95.08079 3978 ft 218 kts 273°
2026-05-04 19:16 29.99120 -95.09763 3867 ft 205 kts 276°
2026-05-04 19:17 29.99303 -95.11365 3693 ft 197 kts 270°
2026-05-04 19:17 29.99393 -95.12910 3541 ft 191 kts 270°
2026-05-04 19:17 29.99526 -95.14468 3320 ft 193 kts 272°
2026-05-04 19:17 29.99666 -95.15941 3311 ft 177 kts 272°
2026-05-04 19:18 29.99760 -95.17328 3162 ft 172 kts 268°
2026-05-04 19:18 29.99779 -95.18693 3004 ft 169 kts 265°
2026-05-04 19:18 29.99750 -95.20040 2846 ft 166 kts 265°
2026-05-04 19:18 29.99793 -95.21393 2682 ft 167 kts 269°
2026-05-04 19:19 29.99763 -95.22735 2453 ft 168 kts 261°
2026-05-04 19:19 29.99660 -95.24085 2226 ft 170 kts 260°
2026-05-04 19:19 29.99563 -95.25490 1957 ft 175 kts 263°
2026-05-04 19:19 29.99481 -95.26934 1642 ft 180 kts 260°
2026-05-04 19:20 29.99376 -95.28385 1318 ft 185 kts 263°
2026-05-04 19:20 29.99347 -95.29834 899 ft 178 kts 265°
2026-05-04 19:20 29.99344 -95.31259 462 ft 173 kts 265°
2026-05-04 19:20 29.99346 -95.32637 164 ft 172 kts 266°
2026-05-04 19:21 29.99329 -95.33920 102 ft 137 kts 265°
2026-05-04 19:21 29.99331 -95.34699 101 ft 69 kts 268°
2026-05-04 19:21 29.99336 -95.35190 101 ft 35 kts 270°
2026-05-04 19:21 29.99290 -95.35278 100 ft 9 kts 188°
2026-05-04 19:22 29.99239 -95.35281 100 ft 0 kts 181°
2026-05-04 19:22 29.99238 -95.35281 100 ft 0 kts 181°
2026-05-04 19:22 29.99202 -95.35281 100 ft 7 kts 183°
2026-05-04 19:22 29.99197 -95.35281 100 ft 0 kts 182°